| time (UTC) | temp F | wind direction | speed MPH | gust MPH | rain 1hr in | rain 24hr in | rain mn in | humidity % | barometer mb |
| 20260503031600 | 39 | 239 | 1.0 | 6.0 | 0.00 | 0.15 | 0.02 | 68 | 1014.7 |
| 20260503030035 | 40 | 275 | 2.0 | 10.0 | 0.00 | 0.16 | 0.02 | 69 | 1014.8 |
| 20260503024510 | 40 | 280 | 6.0 | 11.0 | 0.00 | 0.16 | 0.02 | 69 | 1014.8 |
| 20260503023055 | 40 | 255 | 4.0 | 8.0 | 0.00 | 0.16 | 0.02 | 71 | 1014.9 |
| 20260503021525 | 40 | 252 | 2.0 | 8.0 | 0.00 | 0.16 | 0.02 | 71 | 1015.0 |
| 20260503020012 | 40 | 255 | 2.0 | 10.0 | 0.00 | 0.16 | 0.02 | 70 | 1014.9 |
| 20260503014547 | 40 | 222 | 3.0 | 7.0 | 0.00 | 0.16 | 0.02 | 70 | 1014.7 |
| 20260503013014 | 40 | 249 | 4.0 | 6.0 | 0.00 | 0.16 | 0.02 | 74 | 1014.7 |
| 20260503011537 | 40 | 265 | 4.0 | 7.0 | 0.00 | 0.16 | 0.02 | 77 | 1014.7 |
| 20260503010011 | 40 | 250 | 3.0 | 7.0 | 0.00 | 0.17 | 0.02 | 79 | 1014.4 |
| 20260503004533 | 40 | 251 | 2.0 | 6.0 | 0.00 | 0.17 | 0.02 | 78 | 1014.3 |
| 20260503003012 | 40 | 273 | 2.0 | 11.0 | 0.00 | 0.17 | 0.02 | 75 | 1014.0 |
| 20260503001532 | 41 | 257 | 6.0 | 11.0 | 0.00 | 0.17 | 0.02 | 78 | 1014.1 |
| 20260503000014 | 41 | 231 | 2.0 | 5.0 | 0.00 | 0.17 | 0.02 | 78 | 1014.0 |
| 20260502234538 | 41 | 248 | 4.0 | 8.0 | 0.00 | 0.17 | 0.02 | 76 | 1013.9 |
| 20260502233019 | 42 | 243 | 2.0 | 8.0 | 0.00 | 0.17 | 0.02 | 75 | 1013.8 |
| 20260502231505 | 42 | 274 | 3.0 | 7.0 | 0.00 | 0.17 | 0.02 | 74 | 1013.7 |
| 20260502230028 | 42 | 284 | 3.0 | 10.0 | 0.00 | 0.17 | 0.02 | 73 | 1013.7 |
| 20260502224515 | 42 | 281 | 3.0 | 10.0 | 0.00 | 0.17 | 0.02 | 73 | 1013.6 |
| 20260502223056 | 43 | 277 | 3.0 | 7.0 | 0.00 | 0.17 | 0.02 | 73 | 1013.5 |
| 20260502221521 | 43 | 300 | 6.0 | 11.0 | 0.00 | 0.17 | 0.02 | 71 | 1013.4 |
| 20260502220056 | 43 | 269 | 6.0 | 9.0 | 0.00 | 0.19 | 0.02 | 72 | 1013.4 |
| 20260502214613 | 43 | 272 | 4.0 | 7.0 | 0.00 | 0.19 | 0.02 | 75 | 1013.4 |
| 20260502213012 | 43 | 355 | 1.0 | 6.0 | 0.00 | 0.19 | 0.02 | 79 | 1013.4 |
| 20260502211536 | 42 | 288 | 5.0 | 8.0 | 0.00 | 0.19 | 0.02 | 78 | 1013.3 |
| 20260502210028 | 42 | 264 | 5.0 | 8.0 | 0.00 | 0.22 | 0.02 | 78 | 1013.2 |
| 20260502204543 | 42 | 278 | 2.0 | 4.0 | 0.00 | 0.22 | 0.02 | 79 | 1013.3 |
| 20260502203020 | 42 | 285 | 7.0 | 11.0 | 0.00 | 0.22 | 0.02 | 76 | 1013.3 |
| 20260502201620 | 42 | 277 | 5.0 | 9.0 | 0.00 | 0.22 | 0.02 | 75 | 1013.4 |
| 20260502201501 | 43 | 278 | 5.0 | 11.0 | 0.00 | 0.22 | 0.02 | 76 | 1013.4 |
| 20260502200024 | 43 | 276 | 4.0 | 11.0 | 0.00 | 0.28 | 0.02 | 75 | 1013.4 |
| 20260502194503 | 43 | 300 | 7.0 | 12.0 | 0.00 | 0.28 | 0.02 | 74 | 1013.5 |
| 20260502193028 | 44 | 285 | 7.0 | 12.0 | 0.00 | 0.28 | 0.02 | 70 | 1013.5 |
| 20260502191600 | 45 | 278 | 3.0 | 8.0 | 0.00 | 0.28 | 0.02 | 64 | 1013.7 |
| 20260502191503 | 45 | 266 | 3.0 | 8.0 | 0.00 | 0.28 | 0.02 | 64 | 1013.7 |
| 20260502190044 | 46 | 278 | 3.0 | 6.0 | 0.00 | 0.28 | 0.02 | 61 | 1013.6 |
| 20260502184511 | 46 | 297 | 4.0 | 10.0 | 0.00 | 0.28 | 0.02 | 60 | 1013.8 |
| 20260502183042 | 46 | 236 | 2.0 | 10.0 | 0.00 | 0.28 | 0.02 | 61 | 1013.9 |
| 20260502181509 | 45 | 250 | 5.0 | 9.0 | 0.00 | 0.28 | 0.02 | 61 | 1014.0 |
| 20260502163030 | 45 | 258 | 10.0 | 14.0 | 0.00 | 0.28 | 0.02 | 61 | 1014.1 |
| 20260502161504 | 45 | 275 | 6.0 | 11.0 | 0.00 | 0.28 | 0.02 | 59 | 1014.2 |
| 20260502151526 | 45 | 207 | 0.0 | 9.0 | 0.00 | 0.28 | 0.02 | 62 | 1014.3 |
| 20260502123022 | 39 | 302 | 4.0 | 11.0 | 0.00 | 0.28 | 0.02 | 79 | 1014.9 |
| 20260502121538 | 39 | 269 | 4.0 | 10.0 | 0.00 | 0.28 | 0.02 | 82 | 1015.0 |
| 20260502114634 | 38 | 259 | 3.0 | 8.0 | 0.00 | 0.28 | 0.02 | 84 | 1015.0 |
| 20260502113020 | 37 | 274 | 5.0 | 8.0 | 0.00 | 0.28 | 0.02 | 86 | 1014.7 |
| 20260502111539 | 36 | 248 | 3.0 | 7.0 | 0.00 | 0.28 | 0.02 | 86 | 1014.7 |
| 20260502110044 | 36 | 287 | 5.0 | 10.0 | 0.00 | 0.28 | 0.02 | 88 | 1014.6 |
| 20260502104600 | 35 | 285 | 3.0 | 7.0 | 0.00 | 0.28 | 0.02 | 89 | 1014.6 |
| 20260502104502 | 35 | 265 | 3.0 | 7.0 | 0.00 | 0.28 | 0.02 | 89 | 1014.6 |
| 20260502103042 | 35 | 259 | 4.0 | 10.0 | 0.00 | 0.28 | 0.02 | 91 | 1014.9 |
| 20260502101618 | 34 | 269 | 5.0 | 8.0 | 0.00 | 0.28 | 0.02 | 93 | 1014.7 |
| 20260502101501 | 34 | 250 | 4.0 | 8.0 | 0.00 | 0.28 | 0.02 | 94 | 1014.7 |
| 20260502091508 | 35 | 210 | 1.0 | 3.0 | 0.00 | 0.28 | 0.02 | 91 | 1014.0 |
| 20260502071507 | 37 | 290 | 4.0 | 10.0 | 0.00 | 0.28 | 0.02 | 92 | 1013.6 |
| 20260502070047 | 37 | 290 | 4.0 | 10.0 | 0.00 | 0.28 | 0.02 | 93 | 1013.4 |
| 20260502064622 | 37 | 293 | 5.0 | 9.0 | 0.00 | 0.28 | 0.02 | 94 | 1013.4 |
| 20260502064501 | 37 | 303 | 5.0 | 9.0 | 0.00 | 0.28 | 0.02 | 94 | 1013.4 |
| 20260502063059 | 37 | 292 | 5.0 | 11.0 | 0.00 | 0.28 | 0.02 | 95 | 1013.4 |
| 20260502061508 | 38 | 302 | 8.0 | 14.0 | 0.00 | 0.28 | 0.02 | 96 | 1013.5 |
| 20260502060041 | 37 | 303 | 12.0 | 17.0 | 0.01 | 0.28 | 0.02 | 97 | 1013.4 |
| 20260502054509 | 38 | 308 | 9.0 | 16.0 | 0.02 | 0.28 | 0.02 | 97 | 1013.5 |
| 20260502053054 | 38 | 337 | 9.0 | 15.0 | 0.02 | 0.28 | 0.02 | 98 | 1013.5 |
| 20260502051512 | 39 | 319 | 7.0 | 12.0 | 0.02 | 0.28 | 0.02 | 98 | 1013.4 |
| 20260502050046 | 39 | 301 | 12.0 | 19.0 | 0.01 | 0.27 | 0.01 | 98 | 1013.4 |
| 20260502044519 | 41 | 269 | 5.0 | 10.0 | 0.06 | 0.26 | 0.00 | 98 | 1013.2 |
| 20260502043107 | 41 | 274 | 3.0 | 9.0 | 0.12 | 0.26 | 0.00 | 98 | 1012.8 |
| 20260502041532 | 42 | 290 | 4.0 | 7.0 | 0.13 | 0.26 | 0.00 | 98 | 1012.7 |
| 20260502040021 | 42 | 276 | 1.0 | 8.0 | 0.12 | 0.25 | 0.25 | 98 | 1012.7 |
| 20260502034536 | 42 | 282 | 5.0 | 8.0 | 0.07 | 0.20 | 0.20 | 98 | 1012.6 |
| 20260502033023 | 43 | 108 | 0.0 | 2.0 | 0.00 | 0.13 | 0.13 | 98 | 1012.3 |